Location: Brompton
(51.4000°N, 0.5333°E)
Time: 16:47:08
(UTC+00:00)

Cosmos 1500 - Pass Details

Date: 11 May 2021
Orbit: 497 x 518 km, 82.5° (Epoch: 24 June)

Event Time Altitude Azimuth Distance (km) Brightness Sun altitude
Rises 21:22:14 0° 343° (NNW) 2,618 8.2 -13.0°
Reaches altitude 10° 21:24:27 10° 336° (NNW) 1,724 7.2 -13.2°
Maximum altitude 21:27:59 39° 267° (W) 769 4.3 -13.5°
Enters shadow 21:31:22 11° 198° (SSW) 1,665 5.4 -13.8°
